Weather History for Medicine Lodge, KS

Change the Weather History Date:

Friday, April 12, 2013

  Actual Average Record
Temperature  
Mean Temperature 45 °F 55 °F  
Max Temperature 61 °F 67 °F 98 °F (1972)
Min Temperature 29 °F 43 °F 20 °F (1997)
Degree Days  
Heating Degree Days 20 11  
Month to date heating degree days 214 147  
Since 1 July heating degree days 4176 4244  
Cooling Degree Days 0 1  
Month to date cooling degree days 3 4  
Year to date cooling degree days 4 6  
Moisture  
Dew Point 31 °F    
Average Humidity 64    
Maximum Humidity 92    
Minimum Humidity 35    
Precipitation  
Precipitation 0.00 in 0.08 in 1.63 in (1967)
Month to date precipitation 1.11 0.82  
Year to date precipitation 7.07 4.83  
Snow  
Snow 0.00 in 0.00 in - ()
Month to date snowfall 0.0 0.0  
Since 1 July snowfall 25.0 8.5  
Snow Depth 0.00 in    
Sea Level Pressure  
Sea Level Pressure 29.97 in    
Wind  
Wind Speed 5 mph (North)    
Max Wind Speed 16 mph    
Max Gust Speed 20 mph    
T = Trace of Precipitation, MM = Missing Value Source: NWS Daily Summary

Daily Weather History Graph

Daily Weather History Graph

Search for Another Location

Airport:

Trip Planner

Search our weather history database for the weather conditions in past years. The results will help you decide how hot, cold, wet, or windy it might be!

Date:

Astronomy

Apr. 12, 2013 Rise Set
Actual Time 7:03 AM CDT 8:06 PM CDT
Civil Twilight 6:36 AM CDT 8:33 PM CDT
Nautical Twilight 6:04 AM CDT 9:05 PM CDT
Astronomical Twilight 5:31 AM CDT 9:38 PM CDT
Moon 8:17 AM CDT (4/12) 10:35 PM CDT (4/12)
Length of Visible Light 13h 57m
Length of Day
13h 03m
Waxing Crescent, 5% of the Moon is Illuminated
Apr 12
Waxing Crescent
Apr 18
First Quarter
Apr 25
Full
May 2
Last Quarter
May 9
New

Hourly Weather History & Observations

Time (CDT) Temp. Windchill Dew Point Humidity Pressure Visibility Wind Dir Wind Speed Gust Speed Precip Events Conditions
12:56 AM 36.0 °F 30.3 °F 28.9 °F 76% 29.90 in - North 6.9 mph - N/A   Unknown
1:56 AM 33.1 °F 30.0 °F 28.9 °F 85% 29.91 in - North 3.5 mph - N/A   Unknown
2:56 AM 30.9 °F - 28.9 °F 92% 29.92 in - Calm Calm - N/A   Unknown
3:56 AM 32.0 °F 27.5 °F 28.0 °F 85% 29.93 in - NNW 4.6 mph - N/A   Unknown
4:56 AM 32.0 °F 26.4 °F 28.0 °F 85% 29.95 in - West 5.8 mph - N/A   Unknown
5:56 AM 30.9 °F - 27.0 °F 85% 29.96 in - Calm Calm - N/A   Unknown
6:56 AM 28.9 °F 25.2 °F 27.0 °F 92% 29.97 in - NW 3.5 mph - N/A   Unknown
7:56 AM 32.0 °F 25.6 °F 27.0 °F 82% 29.99 in - NNW 6.9 mph - N/A   Unknown
8:56 AM 39.0 °F 34.0 °F 28.9 °F 67% 30.00 in - NNW 6.9 mph - N/A   Unknown
9:56 AM 45.0 °F 40.1 °F 27.0 °F 49% 30.01 in - NNW 9.2 mph - N/A   Unknown
10:56 AM 48.0 °F - 27.0 °F 44% 30.01 in - North 13.8 mph - N/A   Unknown
11:56 AM 51.1 °F - 28.9 °F 43% 30.03 in - NNW 9.2 mph - N/A   Unknown
12:56 PM 52.0 °F - 30.0 °F 43% 30.03 in - West 8.1 mph - N/A   Unknown
1:56 PM 55.9 °F - 30.9 °F 39% 30.01 in - Variable 4.6 mph - N/A   Unknown
2:56 PM 57.9 °F - 30.9 °F 36% 30.00 in - WNW 5.8 mph - N/A   Unknown
3:56 PM 57.9 °F - 30.9 °F 36% 29.96 in - Variable 3.5 mph - N/A   Unknown
4:56 PM 60.1 °F - 32.0 °F 35% 29.95 in - Calm Calm - N/A   Unknown
5:56 PM 60.1 °F - 32.0 °F 35% 29.94 in - ENE 4.6 mph - N/A   Unknown
6:56 PM 59.0 °F - 33.1 °F 38% 29.95 in - SE 6.9 mph - N/A   Unknown
7:56 PM 55.0 °F - 37.9 °F 53% 29.94 in - South 8.1 mph - N/A   Unknown
8:56 PM 51.1 °F - 37.9 °F 61% 29.96 in - SE 5.8 mph - N/A   Unknown
9:56 PM 48.0 °F - 39.0 °F 71% 29.99 in - East 4.6 mph - N/A   Unknown
10:56 PM 45.0 °F 43.5 °F 37.9 °F 76% 30.04 in - ESE 3.5 mph - N/A   Unknown
11:56 PM 46.0 °F 43.9 °F 37.9 °F 73% 30.04 in - ESE 4.6 mph - N/A   Unknown